SA7AHC Weather Reports


Display with metric or nautical units.
time (UTC)temp
F
wind
direction
speed
MPH
gust
MPH
rain 1hr
in
rain 24hr
in
rain mn
in
humidity
%
barometer
mb
20260506050437 41 71 7.0 10.0 0.00 0.00 0.00 56 1012.3
20260506044435 40 80 6.0 11.0 0.00 0.00 0.00 63 1012.2
20260506043435 39 77 6.0 10.0 0.00 0.00 0.00 65 1012.2
20260506041435 37 79 5.0 9.0 0.00 0.00 0.00 70 1012.1
20260506040437 36 78 5.0 7.0 0.00 0.00 0.00 72 1011.9
20260506035439 35 78 5.0 7.0 0.00 0.00 0.00 73 1011.9
20260506034438 34 76 5.0 7.0 0.00 0.00 0.00 73 1011.8
20260506033437 33 73 5.0 7.0 0.00 0.00 0.00 73 1011.9
20260506032432 33 75 5.0 6.0 0.00 0.00 0.00 74 1011.8
20260506031428 32 76 5.0 6.0 0.00 0.00 0.00 76 1011.8
20260506030421 32 71 4.0 5.0 0.00 0.00 0.00 75 1011.8
20260506025416 33 69 4.0 5.0 0.00 0.00 0.00 72 1011.8
20260506024427 33 65 3.0 5.0 0.00 0.00 0.00 71 1011.8
20260506023405 33 62 2.0 4.0 0.00 0.00 0.00 72 1011.9
20260506022406 33 62 3.0 4.0 0.00 0.00 0.00 73 1012.0
20260506021406 33 62 1.0 4.0 0.00 0.00 0.00 72 1011.9
20260506020412 33 61 3.0 5.0 0.00 0.00 0.00 71 1011.9
20260506015406 34 58 2.0 4.0 0.00 0.00 0.00 71 1011.9
20260506014409 34 57 2.0 4.0 0.00 0.00 0.00 71 1011.9
20260506013404 34 57 3.0 5.0 0.00 0.00 0.00 71 1011.7
20260506012407 34 47 1.0 5.0 0.00 0.00 0.00 75 1011.7
20260506011402 34 44 1.0 3.0 0.00 0.00 0.00 73 1011.4
20260506010352 33 44 2.0 4.0 0.00 0.00 0.00 77 1011.5
20260506005348 33 36 1.0 4.0 0.00 0.00 0.00 79 1011.5
20260506004342 33 30 1.0 4.0 0.00 0.00 0.00 79 1011.4
20260506003336 34 337 0.0 0.0 0.00 0.00 0.00 78 1011.4
20260506002336 34 337 0.0 0.0 0.00 0.00 0.00 76 1011.4
20260506000339 33 337 0.0 0.0 0.00 0.00 0.00 80 1011.3
20260505235335 34 337 0.0 0.0 0.00 0.00 0.00 79 1011.3
20260505234333 35 337 0.0 0.0 0.00 0.00 0.00 77 1011.4
20260505233335 35 337 0.0 0.0 0.00 0.00 0.00 75 1011.5
20260505232338 35 337 0.0 0.0 0.00 0.00 0.00 71 1011.5
20260505231338 36 337 0.0 0.0 0.00 0.00 0.00 66 1011.5
20260505230345 36 337 0.0 0.0 0.00 0.00 0.00 67 1011.5
20260505225337 36 337 0.0 0.0 0.00 0.00 0.00 70 1011.6
20260505224332 37 337 0.0 0.0 0.00 0.00 0.00 70 1011.6
20260505223334 37 337 0.0 0.0 0.00 0.00 0.00 66 1011.5
20260505222334 38 337 0.0 0.0 0.00 0.00 0.00 64 1011.5
20260505221331 38 337 0.0 0.0 0.00 0.00 0.00 65 1011.6
20260505220336 39 336 0.0 0.0 0.00 0.00 0.00 62 1011.6
20260505215329 40 336 0.0 2.0 0.00 0.00 0.00 62 1011.6
20260505214314 41 336 1.0 5.0 0.00 0.00 0.00 56 1011.7
20260505213307 41 331 1.0 2.0 0.00 0.00 0.00 53 1011.6
20260505212306 40 331 1.0 2.0 0.00 0.00 0.00 56 1011.6
20260505211307 39 321 1.0 2.0 0.00 0.00 0.00 63 1011.3
20260505210304 39 321 1.0 2.0 0.00 0.00 0.00 65 1011.3
20260505205313 40 321 0.0 1.0 0.00 0.00 0.00 66 1011.3
20260505204310 40 321 0.0 0.0 0.00 0.00 0.00 62 1011.2
20260505203307 40 321 0.0 2.0 0.00 0.00 0.00 62 1011.3
20260505202307 40 301 0.0 2.0 0.00 0.00 0.00 59 1011.3
20260505201303 41 288 0.0 1.0 0.00 0.00 0.00 58 1011.2
20260505200253 42 288 0.0 1.0 0.00 0.00 0.00 53 1011.2
20260505195246 43 288 0.0 0.0 0.00 0.00 0.00 49 1010.8
20260505194242 44 288 0.0 1.0 0.00 0.00 0.00 49 1010.9
20260505193235 45 288 1.0 2.0 0.00 0.00 0.00 46 1010.9
20260505192232 46 288 1.0 2.0 0.00 0.00 0.00 44 1010.9
20260505191232 47 288 1.0 2.0 0.00 0.00 0.00 43 1011.0
20260505190234 47 287 1.0 3.0 0.00 0.00 0.00 39 1010.8
20260505185232 47 287 1.0 3.0 0.00 0.00 0.00 46 1010.6
20260505184234 47 285 1.0 2.0 0.00 0.00 0.00 47 1010.6
20260505183232 48 285 0.0 2.0 0.00 0.00 0.00 48 1010.5
20260505182234 50 285 0.0 2.0 0.00 0.00 0.00 42 1010.4
20260505181233 51 285 1.0 2.0 0.00 0.00 0.00 37 1010.5
20260505180227 52 285 1.0 4.0 0.00 0.00 0.00 34 1010.6
20260505175221 53 249 1.0 4.0 0.00 0.00 0.00 31 1010.3
20260505174209 54 258 2.0 6.0 0.00 0.00 0.00 29 1010.3
20260505173210 54 296 1.0 2.0 0.00 0.00 0.00 28 1010.4
20260505172208 55 295 1.0 4.0 0.00 0.00 0.00 28 1010.4
20260505171205 55 314 2.0 7.0 0.00 0.00 0.00 26 1010.4
20260505165205 56 213 3.0 9.0 0.00 0.00 0.00 25 1010.4
20260505164208 56 244 4.0 9.0 0.00 0.00 0.00 26 1010.4
20260505163207 56 335 3.0 7.0 0.00 0.00 0.00 25 1010.4
20260505162206 56 269 3.0 8.0 0.00 0.00 0.00 27 1010.3
20260505161207 58 348 0.0 5.0 0.00 0.00 0.00 25 1010.4
20260505160201 57 80 2.0 6.0 0.00 0.00 0.00 24 1010.3
20260505153200 58 318 3.0 7.0 0.00 0.00 0.00 24 1010.5
20260505152154 58 331 3.0 9.0 0.00 0.00 0.00 25 1010.5
20260505151152 59 0 2.0 5.0 0.00 0.00 0.00 30 1010.5
20260505150157 57 255 4.0 9.0 0.00 0.00 0.00 25 1010.5
20260505140138 59 339 2.0 7.0 0.00 0.00 0.00 28 1010.7
20260505130134 56 275 4.0 9.0 0.00 0.00 0.00 35 1010.7
20260505124136 56 221 5.0 12.0 0.00 0.00 0.00 34 1010.7
20260505123135 56 333 5.0 11.0 0.00 0.00 0.00 34 1010.9
20260505122134 58 311 3.0 12.0 0.00 0.00 0.00 40 1010.9
20260505121131 55 200 4.0 9.0 0.00 0.00 0.00 35 1010.8
20260505120136 57 265 3.0 10.0 0.00 0.00 0.00 37 1010.9
20260505115132 56 265 4.0 10.0 0.00 0.00 0.00 38 1010.8
20260505114131 57 280 5.0 13.0 0.00 0.00 0.00 45 1010.8
20260505113132 55 224 4.0 8.0 0.00 0.00 0.00 40 1010.9
20260505112134 55 240 4.0 8.0 0.00 0.00 0.00 42 1011.0
20260505111135 54 227 5.0 10.0 0.00 0.00 0.00 42 1011.0
20260505110132 55 315 5.0 10.0 0.00 0.00 0.00 41 1011.0
20260505102134 54 322 6.0 12.0 0.00 0.00 0.00 40 1010.9
20260505101136 54 279 5.0 11.0 0.00 0.00 0.00 40 1010.9
20260505100135 53 262 5.0 16.0 0.00 0.00 0.00 42 1010.8
20260505095131 53 293 5.0 11.0 0.00 0.00 0.00 46 1010.9
20260505094122 53 261 5.0 16.0 0.00 0.00 0.00 45 1010.9
20260505093122 52 321 6.0 12.0 0.00 0.00 0.00 50 1010.8
20260505092125 52 302 5.0 12.0 0.00 0.00 0.00 46 1010.8
20260505091104 52 275 4.0 13.0 0.00 0.00 0.00 50 1010.8
20260505090109 52 306 4.0 12.0 0.00 0.00 0.00 51 1010.8
20260505085105 51 257 6.0 11.0 0.00 0.00 0.00 58 1010.7
20260505084106 51 243 5.0 12.0 0.00 0.00 0.00 56 1010.7
20260505083103 51 238 5.0 12.0 0.00 0.00 0.00 59 1010.7
20260505082106 50 300 4.0 8.0 0.00 0.00 0.00 61 1010.7
20260505081059 49 242 5.0 12.0 0.00 0.00 0.00 63 1010.6
20260505080057 49 261 4.0 12.0 0.00 0.00 0.00 68 1010.6
20260505075604 49 219 4.0 14.0 0.00 0.00 0.00 71 1010.6
20260505074054 48 258 4.0 12.0 0.00 0.00 0.00 72 1010.6
20260505073051 47 282 4.0 12.0 0.00 0.01 0.00 75 1010.4
20260505072053 47 253 6.0 15.0 0.00 0.02 0.00 74 1010.4
20260505071054 47 257 4.0 10.0 0.00 0.02 0.00 77 1010.4
20260505070051 46 295 5.0 10.0 0.00 0.02 0.00 80 1010.2
20260505065047 46 314 5.0 10.0 0.00 0.03 0.00 82 1010.3
20260505064049 45 254 6.0 13.0 0.00 0.04 0.00 84 1010.3
20260505063045 45 225 5.0 11.0 0.00 0.04 0.00 85 1010.2
20260505062040 44 212 5.0 10.0 0.00 0.04 0.00 87 1010.2
20260505061039 44 261 5.0 10.0 0.00 0.04 0.00 87 1010.2
20260505060038 44 267 5.0 10.0 0.00 0.04 0.00 86 1010.0
20260505055036 44 253 3.0 10.0 0.00 0.04 0.00 87 1009.9